Los Angeles, CA

10:58 PM PDT on September 30, 2016 (GMT -0700)
Los Angeles International

Weather History for KLAX - January, 2014

Change the Weather History Date:

Wednesday, January 22, 2014

  Actual Average Record
Temperature  
Mean Temperature 63 °F 57 °F  
Max Temperature 73 °F 65 °F 82 °F (1976)
Min Temperature 53 °F 49 °F 38 °F (1966)
Degree Days  
Heating Degree Days 2 8  
Month to date heating degree days 80 187  
Since 1 July heating degree days 373 629  
Cooling Degree Days 0 0  
Month to date cooling degree days 14 0  
Year to date cooling degree days 14 0  
Growing Degree Days 14 (Base 50)    
Moisture  
Dew Point 51 °F    
Average Humidity 65    
Maximum Humidity 93    
Minimum Humidity 37    
Precipitation  
Precipitation 0.00 in 0.08 in 1.94 in (1983)
Month to date precipitation 0.00 1.94  
Year to date precipitation 0.00 1.94  
Since 1 July precipitation 1.04  
Sea Level Pressure  
Sea Level Pressure 29.96 in    
Wind  
Wind Speed 5 mph (SSW)    
Max Wind Speed 13 mph    
Max Gust Speed 17 mph    
Visibility 7 miles    
Events Fog    
T = Trace of Precipitation, MM = Missing Value Source: NWS Daily Summary

Daily Weather History Graph

Daily Weather History Graph

Search for Another Location

Airport or City:

Trip Planner

Search our weather history database for the weather conditions in past years. The results will help you decide how hot, cold, wet, or windy it might be!

Date:

Astronomy

Jan. 22, 2014 Rise Set
Actual Time 6:56 AM PST 5:14 PM PST
Civil Twilight 6:29 AM PST 5:41 PM PST
Nautical Twilight 5:59 AM PST 6:11 PM PST
Astronomical Twilight 5:29 AM PST 6:41 PM PST
Moon 11:31 PM PST (1/22) 10:18 AM PST (1/22)
Length of Visible Light 11h 11m
Length of Day
10h 18m
Waning Gibbous, 64% of the Moon is Illuminated
Jan 22
Waning Gibbous
Jan 23
Last Quarter
Jan 30
New
Feb 6
First Quarter
Feb 14
Full

Hourly Weather History & Observations

Time (PST) Temp. Dew Point Humidity Pressure Visibility Wind Dir Wind Speed Gust Speed Precip Events Conditions
12:53 AM 64.0 °F 42.1 °F 45% 30.04 in 10.0 mi Calm Calm - N/A   Mostly Cloudy
1:53 AM 64.0 °F 37.9 °F 38% 30.04 in 10.0 mi Calm Calm - N/A   Mostly Cloudy
2:53 AM 60.1 °F 44.1 °F 55% 30.02 in 10.0 mi Calm Calm - N/A   Mostly Cloudy
3:53 AM 57.9 °F 45.0 °F 62% 30.01 in 10.0 mi ENE 3.5 mph - N/A   Mostly Cloudy
4:53 AM 57.0 °F 45.0 °F 64% 30.00 in 10.0 mi ENE 4.6 mph - N/A   Mostly Cloudy
5:53 AM 55.0 °F 48.9 °F 80% 30.00 in 10.0 mi East 4.6 mph - N/A   Scattered Clouds
6:53 AM 55.9 °F 51.1 °F 84% 30.01 in 10.0 mi ESE 3.5 mph - N/A   Scattered Clouds
7:53 AM 57.2 °F 53.6 °F 88% 30.01 in 6.0 mi East 4.6 mph - N/A   Scattered Clouds
8:53 AM 62.1 °F 52.0 °F 70% 30.01 in 9.0 mi ESE 5.8 mph - N/A   Scattered Clouds
9:53 AM 66.0 °F 51.1 °F 59% 30.02 in 9.0 mi East 5.8 mph - N/A   Scattered Clouds
10:53 AM 69.1 °F 45.0 °F 42% 30.00 in 10.0 mi ESE 4.6 mph - N/A   Scattered Clouds
11:53 AM 72.0 °F 44.1 °F 37% 29.96 in 9.0 mi SE 4.6 mph - N/A   Scattered Clouds
12:53 PM 71.1 °F 52.0 °F 51% 29.93 in 9.0 mi West 9.2 mph - N/A   Scattered Clouds
1:53 PM 64.9 °F 55.0 °F 70% 29.91 in 10.0 mi West 12.7 mph - N/A   Partly Cloudy
2:21 PM 64.4 °F 53.6 °F 68% 29.91 in 10.0 mi West 10.4 mph - N/A Fog Patches of Fog
2:53 PM 64.0 °F 54.0 °F 70% 29.90 in 10.0 mi WSW 10.4 mph - N/A Fog Patches of Fog
3:53 PM 61.0 °F 54.0 °F 78% 29.91 in 6.0 mi WSW 6.9 mph - N/A Fog Patches of Fog
4:53 PM 63.0 °F 48.9 °F 60% 29.91 in 10.0 mi WSW 4.6 mph - N/A Fog Patches of Fog
5:33 PM 57.2 °F 53.6 °F 88% 29.91 in 2.0 mi West 6.9 mph - N/A Fog Patches of Fog
5:39 PM 57.2 °F 53.6 °F 88% 29.91 in 0.2 mi West 9.2 mph - N/A Fog Fog
5:53 PM 55.9 °F 54.0 °F 93% 29.91 in 0.2 mi WSW 6.9 mph - N/A Fog Fog
6:01 PM 55.4 °F 55.4 °F 100% 29.91 in 0.2 mi SW 3.5 mph - N/A Fog Fog
6:53 PM 57.0 °F 55.0 °F 93% 29.92 in 1.5 mi WSW 6.9 mph - N/A   Overcast
7:07 PM 57.2 °F 55.4 °F 94% 29.92 in 4.0 mi WSW 4.6 mph - N/A   Overcast
7:21 PM 59.0 °F 55.4 °F 88% 29.92 in 7.0 mi WSW 6.9 mph - N/A   Mostly Cloudy
7:53 PM 59.0 °F 55.0 °F 87% 29.93 in 8.0 mi West 8.1 mph - N/A   Mostly Cloudy
8:53 PM 59.0 °F 55.0 °F 87% 29.93 in 8.0 mi Calm Calm - N/A   Mostly Cloudy
9:53 PM 57.9 °F 54.0 °F 87% 29.94 in 6.0 mi ESE 6.9 mph - N/A   Overcast
10:53 PM 57.0 °F 53.1 °F 87% 29.94 in 4.0 mi SE 5.8 mph - N/A   Scattered Clouds
11:14 PM 55.4 °F 51.8 °F 88% 29.94 in 3.0 mi East 5.8 mph - N/A   Mostly Cloudy
11:53 PM 55.0 °F 52.0 °F 89% 29.94 in 2.5 mi ESE 4.6 mph - N/A   Overcast